Overview Statistics Trail Chart Weather Telemetry Raw packets
 

This is the latest recevied weather packets stored in our database for station/object KC1HBM. If no packets are shown the sender has not sent any weather packets the latest 10 day(s).

<< 9 10 11 12 13 14 15 >>
Time Temp. Humidity Pressure Rain* Wind** Luminosity Snow
1788554192 22.78° C 88% 1005.5 hPa 0 mm - 52 W/m² -
1788553888 22.78° C 90% 1005.5 hPa 0 mm - 70 W/m² -
1788553584 23.33° C 88% 1005.3 hPa 0 mm - 72 W/m² -
1788553280 23.89° C 88% 1005.5 hPa 0 mm - 58 W/m² -
1788552980 23.33° C 89% 1005.5 hPa 0 mm - 60 W/m² -
1788552675 23.89° C 87% 1005.5 hPa 0 mm - 44 W/m² -
1788552369 23.89° C 86% 1005.6 hPa 0 mm - 29 W/m² -
1788552064 23.89° C 87% 1005.4 hPa 0 mm - 32 W/m² -
1788551763 23.89° C 86% 1005.7 hPa 0 mm - 25 W/m² -
1788551462 24.44° C 84% 1005.5 hPa 0 mm - 42 W/m² -
1788551156 24.44° C 83% 1005.3 hPa 0 mm - 61 W/m² -
1788550851 24.44° C 84% 1005.1 hPa 0 mm - 50 W/m² -
1788550546 24.44° C 82% 1005.4 hPa 0 mm - 63 W/m² -
1788550243 24.44° C 82% 1005.2 hPa 0 mm - 59 W/m² -
1788549942 24.44° C 83% 1005.3 hPa 0 mm - 61 W/m² -
1788549638 23.89° C 85% 1005.4 hPa 0 mm - 62 W/m² -
1788549335 23.89° C 86% 1005.6 hPa 0 mm - 62 W/m² -
1788549031 23.33° C 86% 1005.5 hPa 0 mm - 62 W/m² -
1788548726 22.78° C 86% 1005.8 hPa 0 mm - 58 W/m² -
1788548422 23.33° C 85% 1005.9 hPa 0 mm - 78 W/m² -
1788548118 23.33° C 86% 1006 hPa 0 mm - 52 W/m² -
1788547812 22.22° C 87% 1005.9 hPa 0 mm - 49 W/m² -
1788547507 22.22° C 88% 1005.9 hPa 0 mm - 86 W/m² -
1788547202 21.67° C 90% 1005.8 hPa 0 mm - 91 W/m² -
1788546897 22.22° C 88% 1005.8 hPa 0 mm - 75 W/m² -

* Rain latest hour (hover to see other rain measurements)
** Current wind speed in m/s (hover to see current wind gust speed)